logo tempoitalia

Diretta Meteo Brno-Turany, Repubblica Cecamartedì 17 maggio ore 05:30

Mappa
Sereno 17 °C Pioggia 24 Ore: T.min 13 T.max 26
Ponente Nord Km/h 3.7 Punto di rugiada: 10 °C Umidità: 63% Visibilità: 10 Km
Il sole sorge alle: 05:05 Il sole tramonta alle: 20:33
17 Maggio 2022 05:30 tempo osservato: Pioggia Pioggia 17 63 1017 vento: Nord N 3.7
17 Maggio 2022 05:00 tempo osservato: Pioggia Pioggia 17 63 1017 vento: Nord N 5.5
17 Maggio 2022 04:30 tempo osservato: Pioggia Pioggia 17 63 1017 vento: Nord NO 9.3
17 Maggio 2022 04:00 tempo osservato: Pioggia Pioggia 18 59 1017 vento: Nord N/NO 7.4
17 Maggio 2022 03:30 tempo osservato: Pioggia Pioggia 17 72 1016 vento: Nord O 7.4
17 Maggio 2022 03:00 tempo osservato: Pioggia Pioggia 18 63 1016 vento: Nord NO 13
17 Maggio 2022 02:30 tempo osservato: Pioggia Pioggia 18 72 1016 vento: Nord NO 7.4
17 Maggio 2022 02:00 tempo osservato: Pioggia Pioggia 18 67 1016 vento: Nord O/SO 9.3
17 Maggio 2022 01:30 tempo osservato: Pioggia nelle vicinanze Pioggia nelle vicinanze 17 72 1017 vento: Nord SO 7.4
17 Maggio 2022 01:00 tempo osservato: Sereno Sereno 18 63 1017 vento: Nord N 3.7
17 Maggio 2022 00:30 tempo osservato: Sereno Sereno 18 67 1017 vento: Nord SO 9.3
17 Maggio 2022 00:00 tempo osservato: Sereno Sereno 19 59 1017 vento: Nord N 3.7
16 Maggio 2022 23:30 tempo osservato: Sereno Sereno 19 55 1017 vento: Nord N 3.7
16 Maggio 2022 23:00 tempo osservato: Sereno Sereno 21 49 1017 vento: Nord N 3.7
16 Maggio 2022 22:30 tempo osservato: Sereno Sereno 20 49 1017 vento: Nord N 3.7
16 Maggio 2022 22:00 tempo osservato: Sereno Sereno 21 46 1017 vento: Nord N 5.5
16 Maggio 2022 21:30 tempo osservato: Sereno Sereno 21 43 1017 vento: Nord N 5.5
16 Maggio 2022 21:00 tempo osservato: Sereno Sereno 21 46 1017 vento: Nord S 7.4
16 Maggio 2022 20:30 tempo osservato: Sereno Sereno 22 43 1016 vento: Nord S 7.4
16 Maggio 2022 20:00 tempo osservato: Sereno Sereno 23 40 1016 vento: Nord N 5.5
16 Maggio 2022 19:30 tempo osservato: Sereno Sereno 24 38 1016 vento: Nord S 7.4
16 Maggio 2022 19:00 tempo osservato: Sereno Sereno 24 38 1016 vento: Nord S/SO 11.1
16 Maggio 2022 18:30 tempo osservato: Sereno Sereno 25 33 1016 vento: Nord N 5.5
16 Maggio 2022 18:00 tempo osservato: Sereno Sereno 25 36 1016 vento: Nord S 9.3
16 Maggio 2022 17:30 tempo osservato: Sereno Sereno 26 31 1016 vento: Nord S 7.4
16 Maggio 2022 17:00 tempo osservato: Sereno Sereno 26 31 1016 vento: Nord N 9.3
16 Maggio 2022 16:30 tempo osservato: Sereno Sereno 25 33 1017 vento: Nord SO 7.4
16 Maggio 2022 16:00 tempo osservato: Sereno Sereno 26 31 1017 vento: Nord O 9.3
16 Maggio 2022 15:30 tempo osservato: Sereno Sereno 26 31 1017 vento: Nord N 5.5
16 Maggio 2022 15:00 tempo osservato: Sereno Sereno 26 36 1018 vento: Nord O 11.1
16 Maggio 2022 14:30 tempo osservato: Sereno Sereno 25 36 1018 vento: Nord O 9.3
16 Maggio 2022 14:00 tempo osservato: Sereno Sereno 25 36 1018 vento: Nord N 5.5
16 Maggio 2022 13:30 tempo osservato: Sereno Sereno 24 35 1019 vento: Nord N 7.4
16 Maggio 2022 13:00 tempo osservato: Sereno Sereno 24 35 1019 vento: Nord N 7.4
16 Maggio 2022 12:30 tempo osservato: Sereno Sereno 24 35 1019 vento: Nord N 5.5
16 Maggio 2022 12:00 tempo osservato: Sereno Sereno 23 40 1019 vento: Nord S/SE 9.3
16 Maggio 2022 11:30 tempo osservato: Sereno Sereno 22 40 1020 vento: Nord N 7.4
16 Maggio 2022 11:00 tempo osservato: Sereno Sereno 22 40 1020 vento: Nord E 13
16 Maggio 2022 10:30 tempo osservato: Sereno Sereno 21 43 1020 vento: Nord E/NE 13
16 Maggio 2022 10:00 tempo osservato: Sereno Sereno 20 39 1020 vento: Nord E 14.8
16 Maggio 2022 09:30 tempo osservato: Sereno Sereno 19 42 1020 vento: Nord E 16.7
16 Maggio 2022 09:00 tempo osservato: Sereno Sereno 19 45 1020 vento: Nord E 14.8
16 Maggio 2022 08:30 tempo osservato: Sereno Sereno 17 51 1020 vento: Nord N 3.7
16 Maggio 2022 08:00 tempo osservato: Sereno Sereno 16 51 1020 vento: Nord N 1.8
16 Maggio 2022 07:30 tempo osservato: Sereno Sereno 14 58 1020 vento: Nord N 3.7
16 Maggio 2022 07:00 tempo osservato: Sereno Sereno 13 66 1020 vento: Nord NO 7.4